When you browse on this site, cookies collect data to enhance your experience and personalize the content and advertising you see.
Visit our Privacy Policy to learn more. By continuing to use the site, you agree to this use of cookies and data.
  • In Österreich
  • Länderverzeichnis
  • Für 7 Tage
  • Wassertemperatur
  • Satellitenkarten
  • Wetterkarte
  • News
  • Widgets
  • user-avatar
    Anmelden

    Stündliche Wetter Stow

    Heute, 19 Juli, Freitag

    Zeit Temperatur Niederschläge Wind Luftdruck Luftfeuchtigkeit
    00:00 +25°C° 0 mm 2 m/S 730 mmHg 89%
    01:00 +24°C° 0 mm 3 m/S 730 mmHg 89%
    02:00 +24°C° 0 mm 3 m/S 730 mmHg 91%
    03:00 +25°C° 0 mm 3 m/S 729 mmHg 92%
    04:00 +25°C° 0 mm 4 m/S 729 mmHg 94%
    05:00 +25°C° 0 mm 4 m/S 729 mmHg 94%
    06:00 +26°C° 0 mm 4 m/S 730 mmHg 93%
    07:00 +27°C° 0 mm 3 m/S 731 mmHg 94%
    08:00 +28°C° 0 mm 3 m/S 731 mmHg 90%
    09:00 +29°C° 0 mm 3 m/S 730 mmHg 87%
    10:00 +30°C° 0 mm 4 m/S 730 mmHg 84%
    11:00 +30°C° 0.1 mm 4 m/S 730 mmHg 82%
    12:00 +32°C° 0.1 mm 4 m/S 730 mmHg 81%
    13:00 +32°C° 0.1 mm 4 m/S 730 mmHg 79%
    14:00 +33°C° 0 mm 4 m/S 730 mmHg 77%
    15:00 +33°C° 0 mm 5 m/S 730 mmHg 75%
    16:00 +34°C° 0 mm 5 m/S 729 mmHg 72%
    17:00 +33°C° 0.2 mm 5 m/S 729 mmHg 77%
    18:00 +32°C° 0.2 mm 4 m/S 730 mmHg 81%
    19:00 +30°C° 0.2 mm 4 m/S 730 mmHg 86%
    20:00 +29°C° 1.4 mm 4 m/S 730 mmHg 87%
    21:00 +28°C° 1.4 mm 4 m/S 730 mmHg 88%
    22:00 +28°C° 1.4 mm 4 m/S 730 mmHg 90%
    23:00 +27°C° 2.3 mm 4 m/S 730 mmHg 91%

    Morgen, 20 Juli, Samstag

    Zeit Temperatur Niederschläge Wind Luftdruck Luftfeuchtigkeit
    00:00 +27°C° 2.3 mm 3 m/S 730 mmHg 93%
    01:00 +26°C° 2.3 mm 3 m/S 730 mmHg 94%
    02:00 +26°C° 1.2 mm 3 m/S 730 mmHg 95%
    03:00 +26°C° 1.2 mm 3 m/S 730 mmHg 95%
    04:00 +26°C° 1.2 mm 3 m/S 730 mmHg 96%
    05:00 +26°C° 0.1 mm 3 m/S 730 mmHg 95%
    06:00 +26°C° 0.1 mm 3 m/S 730 mmHg 95%
    07:00 +27°C° 0.1 mm 3 m/S 730 mmHg 94%
    08:00 +28°C° 0 mm 3 m/S 730 mmHg 90%
    09:00 +29°C° 0 mm 4 m/S 731 mmHg 85%
    10:00 +32°C° 0 mm 4 m/S 731 mmHg 81%
    11:00 +33°C° 0 mm 4 m/S 731 mmHg 77%
    12:00 +33°C° 0 mm 4 m/S 731 mmHg 74%
    13:00 +34°C° 0 mm 5 m/S 731 mmHg 71%
    14:00 +34°C° 0 mm 5 m/S 731 mmHg 71%
    15:00 +34°C° 0 mm 5 m/S 730 mmHg 71%
    16:00 +34°C° 0 mm 5 m/S 730 mmHg 72%
    17:00 +33°C° 0.1 mm 4 m/S 730 mmHg 76%
    18:00 +33°C° 0.1 mm 4 m/S 730 mmHg 80%
    19:00 +31°C° 0.1 mm 3 m/S 730 mmHg 84%
    20:00 +30°C° 0 mm 3 m/S 730 mmHg 87%
    21:00 +29°C° 0 mm 3 m/S 730 mmHg 90%
    22:00 +28°C° 0 mm 3 m/S 730 mmHg 92%
    23:00 +27°C° 0 mm 3 m/S 730 mmHg 93%

    übermorgen, 21 Juli, Sonntag

    Zeit Temperatur Niederschläge Wind Luftdruck Luftfeuchtigkeit
    00:00 +27°C° 0 mm 3 m/S 730 mmHg 93%
    01:00 +27°C° 0 mm 2 m/S 730 mmHg 93%
    02:00 +26°C° 0 mm 2 m/S 730 mmHg 94%
    03:00 +26°C° 0 mm 2 m/S 730 mmHg 95%
    04:00 +26°C° 0 mm 2 m/S 730 mmHg 95%
    05:00 +26°C° 0 mm 2 m/S 730 mmHg 94%
    06:00 +27°C° 0 mm 3 m/S 731 mmHg 94%
    07:00 +27°C° 0 mm 3 m/S 731 mmHg 93%
    08:00 +28°C° 0.5 mm 3 m/S 731 mmHg 88%
    09:00 +29°C° 0.5 mm 3 m/S 731 mmHg 84%
    10:00 +30°C° 0.5 mm 2 m/S 731 mmHg 80%
    11:00 +31°C° 0.7 mm 3 m/S 731 mmHg 77%
    12:00 +31°C° 0.7 mm 3 m/S 731 mmHg 75%
    13:00 +33°C° 0.7 mm 3 m/S 731 mmHg 73%
    14:00 +33°C° 0.7 mm 3 m/S 731 mmHg 72%
    15:00 +33°C° 0.7 mm 3 m/S 730 mmHg 71%
    16:00 +31°C° 0.7 mm 2 m/S 730 mmHg 70%
    17:00 +30°C° 0.7 mm 2 m/S 730 mmHg 74%
    18:00 +29°C° 0.7 mm 2 m/S 730 mmHg 78%
    19:00 +27°C° 0.7 mm 2 m/S 730 mmHg 82%
    20:00 +26°C° 0.2 mm 2 m/S 730 mmHg 83%
    21:00 +24°C° 0.2 mm 2 m/S 730 mmHg 85%
    22:00 +23°C° 0.2 mm 2 m/S 729 mmHg 87%
    23:00 +23°C° 0.2 mm 2 m/S 729 mmHg 88%

    22 Juli, Montag

    Zeit Temperatur Niederschläge Wind Luftdruck Luftfeuchtigkeit
    00:00 +21°C° 0.2 mm 2 m/S 729 mmHg 90%
    01:00 +21°C° 0.2 mm 2 m/S 729 mmHg 91%
    02:00 +21°C° 0.8 mm 2 m/S 728 mmHg 92%
    03:00 +21°C° 0.8 mm 2 m/S 728 mmHg 94%
    04:00 +21°C° 0.8 mm 2 m/S 728 mmHg 95%
    05:00 +23°C° 0.3 mm 2 m/S 728 mmHg 95%
    06:00 +23°C° 0.3 mm 2 m/S 728 mmHg 95%
    07:00 +24°C° 0.3 mm 3 m/S 728 mmHg 95%
    08:00 +25°C° 0.2 mm 3 m/S 728 mmHg 92%
    09:00 +26°C° 0.2 mm 4 m/S 728 mmHg 88%
    10:00 +28°C° 0.2 mm 4 m/S 728 mmHg 84%
    11:00 +27°C° 1.5 mm 4 m/S 727 mmHg 86%
    12:00 +25°C° 1.5 mm 5 m/S 727 mmHg 87%
    13:00 +23°C° 1.5 mm 5 m/S 727 mmHg 88%
    14:00 +22°C° 0.3 mm 5 m/S 727 mmHg 87%
    15:00 +21°C° 0.3 mm 5 m/S 727 mmHg 87%
    16:00 +20°C° 0.3 mm 5 m/S 727 mmHg 87%
    17:00 +19°C° 0.6 mm 5 m/S 727 mmHg 89%
    18:00 +17°C° 0.6 mm 5 m/S 727 mmHg 91%
    19:00 +16°C° 0.6 mm 6 m/S 727 mmHg 94%
    20:00 +16°C° 0.5 mm 5 m/S 727 mmHg 93%
    21:00 +16°C° 0.5 mm 5 m/S 727 mmHg 93%
    22:00 +17°C° 0.5 mm 4 m/S 728 mmHg 93%
    23:00 +17°C° 0 mm 4 m/S 728 mmHg 93%

    23 Juli, Dienstag

    Zeit Temperatur Niederschläge Wind Luftdruck Luftfeuchtigkeit
    00:00 +15°C° 0 mm 4 m/S 728 mmHg 92%
    01:00 +15°C° 0 mm 4 m/S 728 mmHg 92%
    02:00 +16°C° 0 mm 3 m/S 728 mmHg 91%
    03:00 +14°C° 0 mm 3 m/S 729 mmHg 90%
    04:00 +15°C° 0 mm 2 m/S 729 mmHg 89%
    05:00 +16°C° 0 mm 2 m/S 729 mmHg 88%
    06:00 +17°C° 0 mm 2 m/S 730 mmHg 86%
    07:00 +17°C° 0 mm 2 m/S 730 mmHg 85%
    08:00 +19°C° 0 mm 3 m/S 731 mmHg 77%
    09:00 +20°C° 0 mm 3 m/S 731 mmHg 69%
    10:00 +21°C° 0 mm 4 m/S 731 mmHg 62%
    11:00 +22°C° 0 mm 4 m/S 731 mmHg 60%
    12:00 +22°C° 0 mm 4 m/S 732 mmHg 58%
    13:00 +22°C° 0 mm 5 m/S 732 mmHg 57%
    14:00 +22°C° 0.1 mm 4 m/S 732 mmHg 60%
    15:00 +22°C° 0.1 mm 4 m/S 732 mmHg 63%
    16:00 +22°C° 0.1 mm 4 m/S 732 mmHg 66%
    17:00 +21°C° 0.1 mm 4 m/S 732 mmHg 70%
    18:00 +20°C° 0.1 mm 4 m/S 732 mmHg 74%
    19:00 +18°C° 0.1 mm 3 m/S 732 mmHg 78%
    20:00 +17°C° 0 mm 2 m/S 733 mmHg 78%
    21:00 +16°C° 0 mm 2 m/S 733 mmHg 79%
    22:00 +14°C° 0 mm 1 m/S 733 mmHg 80%
    23:00 +14°C° 0 mm 1 m/S 733 mmHg 80%

    24 Juli, Mittwoch

    Zeit Temperatur Niederschläge Wind Luftdruck Luftfeuchtigkeit
    00:00 +13°C° 0 mm 1 m/S 733 mmHg 80%
    01:00 +12°C° 0 mm 0 m/S 733 mmHg 80%
    02:00 +13°C° 0 mm 1 m/S 733 mmHg 81%
    03:00 +13°C° 0 mm 1 m/S 734 mmHg 82%
    04:00 +13°C° 0 mm 1 m/S 734 mmHg 83%
    05:00 +14°C° 0 mm 1 m/S 734 mmHg 83%
    06:00 +15°C° 0 mm 1 m/S 734 mmHg 83%
    07:00 +16°C° 0 mm 1 m/S 734 mmHg 82%
    08:00 +17°C° 0 mm 2 m/S 735 mmHg 78%
    09:00 +19°C° 0 mm 2 m/S 735 mmHg 73%
    10:00 +21°C° 0 mm 3 m/S 735 mmHg 69%
    11:00 +22°C° 0.2 mm 3 m/S 735 mmHg 66%
    12:00 +24°C° 0.2 mm 3 m/S 735 mmHg 64%
    13:00 +24°C° 0.2 mm 3 m/S 735 mmHg 61%
    14:00 +25°C° 0.1 mm 3 m/S 735 mmHg 62%
    15:00 +25°C° 0.1 mm 3 m/S 735 mmHg 62%
    16:00 +25°C° 0.1 mm 3 m/S 734 mmHg 63%
    17:00 +24°C° 0.1 mm 3 m/S 734 mmHg 68%
    18:00 +23°C° 0.1 mm 2 m/S 734 mmHg 74%
    19:00 +20°C° 0.1 mm 2 m/S 734 mmHg 79%
    20:00 +19°C° 0 mm 2 m/S 734 mmHg 82%
    21:00 +19°C° 0 mm 1 m/S 735 mmHg 84%
    22:00 +18°C° 0 mm 1 m/S 735 mmHg 87%
    23:00 +18°C° 0 mm 1 m/S 735 mmHg 88%
    Mehr zeigen